Flag for Germany Weather past 2 weeks in Neu-Isenburg, Hesse, Germany

Now
95 °F

Scattered clouds.


Feels Like: 93 °F
Forecast: 75 / 97 °F
Wind: 2 mph from South

Location: Frankfurt / M-Flughafen

Current Time: Jul 3, 2015 at 7:50:02 PM

Latest Report: Jul 3, 2015 at 7:00 PM


Visibility: 11 mi

Pressure: 30.12 "Hg

Humidity: 26%

Dew point: 55 °F

Location of Neu-IsenburgLocation

Historic Weather in Neu-Isenburg — Graph

°F

Neu-Isenburg temperature yesterday

Maximum temperature yesterday: 95 °F (at 4:00 PM)
Minimum temperature yesterday: 71 °F (at 6:00 AM)
Average temperature yesterday: 85 °F

Past Weeks' High & Low Weather Summary

 TemperatureHumidityPressure
High96 °F (Jul 3, 6:00 PM)100% (Jun 22, 2:00 AM)30.23 "Hg (Jun 22, 2:00 AM)
Low49 °F (Jun 23, 6:00 AM)21% (Jun 30, 7:00 PM)29.70 "Hg (Jun 22, 11:00 PM)
Average66 °F67%30.08 "Hg
* Reported Jun 18 6:00 PM — Jul 3 6:00 PM, Neu-Isenburg, Weather by CustomWeather, © 2015

Note: Actual official high and low records may vary slightly from our data, if they occured in-between our weather recording intervals... More about our weather records

Advertising

Neu-Isenburg weather history for previous 24 hours

 ConditionsComfort  
Time TempWeatherWind HumidityBarometerVisibility
6:00 PM
Fri, Jul 3
96 °FScattered clouds.2 mph28%30.12 "Hg11 mi
4:00 PM94 °FPassing clouds.2 mph30%30.16 "Hg11 mi
3:00 PM94 °FPassing clouds.3 mph36%30.16 "Hg12 mi
2:00 PM91 °FPassing clouds.2 mph38%30.18 "Hg12 mi
1:00 PM89 °FPassing clouds.3 mph42%30.19 "Hg12 mi
12:00 PM89 °FPassing clouds.3 mph47%30.20 "Hg12 mi
10:00 AM82 °FPassing clouds.2 mph57%30.20 "Hg14 mi
9:00 AM80 °FPassing clouds.1 mph63%30.19 "Hg16 mi
8:00 AM78 °FPassing clouds.2 mph66%30.19 "Hg14 mi
7:00 AM76 °FPassing clouds.1 mph71%30.17 "Hg16 mi
6:00 AM73 °FPassing clouds.1 mph75%30.16 "Hg22 mi
4:00 AM72 °FPassing clouds.1 mph76%30.14 "Hg25 mi
3:00 AM73 °FPassing clouds.2 mph74%30.13 "Hg25 mi
2:00 AM73 °FPassing clouds.1 mph72%30.13 "Hg25 mi
1:00 AM76 °FPassing clouds.2 mph64%30.12 "Hg25 mi
12:00 AM78 °FPassing clouds.2 mph61%30.11 "Hg25 mi
10:00 PM
Thu, Jul 2
90 °FPassing clouds.2 mph34%30.09 "Hg31 mi
9:00 PM92 °FPassing clouds.1 mph30%30.07 "Hg31 mi
8:00 PM94 °FPassing clouds.2 mph29%30.06 "Hg34 mi
7:00 PM95 °FPassing clouds.3 mph27%30.06 "Hg34 mi
Weather by CustomWeather, © 2015

See weather overviewHow to use our weather pages